Regional Weather Roundup
Issued by NWS

Home | Current Version | Previous Version | Text Only | Print | Product List | Glossary Off
Versions: 1 2 3 4 5 6 7 8 9 10 11 12 13 14 15 16 17 18 19 20 21 22 23 24 25 26 27 28 29 30 31 32 33 34 35 36 37 38 39 40 41 42 43 44 45 46 47 48 49 50

000
ASUS43 KLMK 251202
RWRKY
KENTUCKY REGIONAL WEATHER ROUNDUP
NATIONAL WEATHER SERVICE LOUISVILLE KY
700 AM EST THU DEC 25 2014

NOTE "FAIR" INDICATES FEW OR NO CLOUDS BELOW 12,000 FEET
WITH NO SIGNIFICANT WEATHER AND/OR OBSTRUCTIONS TO VISIBILITY.

KYZ001>023-026-027-061>063-070>075-251300-
WESTERN AND SOUTH CENTRAL KENTUCKY

CITY           SKY/WX    TMP DP  RH WIND       PRES   REMARKS
PADUCAH        CLOUDY    38  31  76 S5        30.06R WCI  34
HENDERSON      CLOUDY    39  32  75 SW7       30.04R WCI  34
OWENSBORO      CLOUDY    39  34  82 SW8       30.06R WCI  33
HOPKINSVILLE   CLOUDY    39  33  80 W9        30.09R WCI  33
BOWLING GREEN  CLOUDY    39  35  86 W3        30.08R
GLASGOW        NOT AVBL
$$

KYZ024-025-028>034-038-045-046-053-251300-
NORTH CENTRAL KENTUCKY

CITY           SKY/WX    TMP DP  RH WIND       PRES   REMARKS
LOUISVILLE/SDF DRIZZLE   39  32  76 W14       30.03R WCI  31
LOUISVILLE/LOU CLOUDY    38  32  79 W6        30.03R WCI  33
FORT KNOX      CLOUDY    38  33  81 SW7       30.02R WCI  32
$$

KYZ035>037-039>044-047>052-055>060-089>105-251300-
NORTHEAST KENTUCKY

CITY           SKY/WX    TMP DP  RH WIND       PRES   REMARKS
LEXINGTON      CLOUDY    37  33  85 W9        30.01R WCI  30
COVINGTON      CLOUDY    37  32  82 SW8       29.97R WCI  31
FRANKFORT      CLOUDY    37  32  82 W8G17     30.00R WCI  31
$$

KYZ054-064>069-076>088-106>120-251300-
SOUTHEAST KENTUCKY

CITY           SKY/WX    TMP DP  RH WIND       PRES   REMARKS
JACKSON        LGT RAIN  38  33  82 VRB6      30.00R WCI  33
LONDON         CLOUDY    40  32  73 W9        30.04R WCI  34
SOMERSET       NOT AVBL
MIDDLESBORO    NOT AVBL
MONTICELLO     CLOUDY    39  36  89 SW9       30.09R WCI  33
$$



USA.gov is the U.S. government's official web portal to all federal, state and local government web resources and services.